[[{"header":{"parameterUnit":"m.s-1","parameterCategory":1,"la1":30.2991,"la2":30.254,"lo1":-89.0895,"lo2":-89.0444,"dy":0.0017,"dx":0.0017,"nx":28,"ny":28,"refTime":"2025-04-19T21:00:00:Z","depth":0,"parameterNumber":2,"parameterNumberName":"U-component_of_WINDS"},"data":[0,0,0,0,0,0,0,0,0,0,0,0,0,0,0,0,0,0,0,0,0,0,0,0,0,0,0,0,0,0,0,0,0,0,0,0,0,0,0,0,0,0,0,0,0,0,0,0,0,0,0,0,0,0,0,0,0,0,-4.8714,-4.8714,0,-4.8728,-4.8728,-4.8729,-4.8693,-4.8692,-4.8691,-4.869,-4.8704,-4.8705,-4.8707,0,0,0,0,0,0,0,0,0,0,0,0,0,-4.8658,-4.8659,-4.8714,-4.8714,-4.8714,-4.8728,-4.8728,-4.8729,-4.8694,-4.8692,-4.8691,-4.869,-4.8704,-4.8705,-4.8707,0,0,0,0,0,0,0,0,0,0,0,0,0,-4.8678,-4.8659,-4.8714,-4.8699,-4.8697,-4.8728,-4.8728,-4.8729,-4.8694,-4.8692,-4.8691,-4.8689,-4.8703,-4.8705,-4.8707,-4.8753,0,0,-4.8713,-4.8714,0,0,0,0,0,0,0,0,-4.8677,-4.868,-4.8701,-4.87,-4.8698,-4.8707,-4.8714,-4.8737,-4.8694,-4.8695,-4.869,-4.8688,-4.8706,-4.8708,-4.8714,-4.8754,-4.8754,-4.8714,-4.8715,-4.8716,-4.8716,0,0,0,0,0,0,0,-4.8675,-4.8679,-4.8719,-4.8701,-4.87,-4.8691,-4.8692,-4.8718,-4.871,-4.8695,-4.8692,-4.8695,-4.8705,-4.8712,-4.8714,-4.8755,-4.8714,-4.8715,-4.8717,-4.8718,-4.8834,-4.8836,0,0,0,0,0,0,-4.8676,-4.8678,-4.8719,-4.872,-4.8683,-4.8694,-4.8695,-4.8706,-4.871,-4.8708,-4.8696,-4.8693,-4.871,-4.8712,-4.8715,-4.8769,-4.8716,-4.8718,-4.8719,-4.8833,-4.8835,-4.8837,0,0,0,0,0,0,-4.8675,-4.868,-4.8718,-4.8699,-4.8703,-4.8696,-4.8709,-4.8707,-4.8714,-4.871,-4.8709,-4.8705,-4.8708,-4.8712,-4.8744,-4.8769,-4.8719,-4.8721,-4.883,-4.8833,-4.8836,-4.8878,0,0,0,0,0,0,-4.8673,-4.868,-4.8696,-4.8699,-4.8704,-4.8747,-4.8711,-4.8709,-4.8718,-4.8714,-4.8718,-4.8717,-4.8707,-4.8741,-4.8746,-4.8771,-4.8722,-4.8828,-4.8832,-4.8835,-4.8874,-4.8882,-4.8888,0,0,0,0,0,-4.8672,-4.8707,-4.8697,-4.8703,-4.8725,-4.8749,-4.8751,-4.874,-4.872,-4.8737,-4.8735,-4.8717,-4.8766,-4.8745,-4.875,-4.8776,-4.8826,-4.8831,-4.8835,-4.8871,-4.888,-4.8888,0,0,0,0,0,0,-4.8706,-4.8707,-4.8696,-4.8734,-4.8742,-4.8743,-4.8763,-4.875,-4.8763,-4.8759,-4.8744,-4.8745,-4.8781,-4.8782,-4.8758,-4.8822,-4.8793,-4.8798,-4.8819,-4.8827,-4.8834,-4.8832,-4.8724,0,0,0,0,0,-4.8719,-4.8738,-4.8738,-4.8771,-4.8776,-4.877,-4.8779,-4.877,-4.8777,-4.878,-4.8781,-4.8788,-4.8806,-4.8817,-4.8833,-4.8876,-4.8876,-4.8896,-4.8903,-4.8909,-4.8913,-4.8936,-4.8945,-4.885,-4.885,-4.885,0,0,-4.8743,-4.8747,-4.8759,-4.8778,-4.8783,-4.8804,-4.8772,-4.8795,-4.881,-4.8784,-4.8814,-4.8815,-4.8823,-4.8861,-4.8878,-4.8863,-4.894,-4.8914,-4.8919,-4.8919,-4.8941,-4.895,-4.8958,-4.8853,-4.8853,-4.8852,0,0,-4.8799,-4.8804,-4.8832,-4.8838,-4.8847,-4.8843,-4.885,-4.8854,-4.8854,-4.8885,-4.8866,-4.8885,-4.8915,-4.8921,-4.8929,-4.8992,-4.8975,-4.8997,-4.9033,-4.9055,-4.9063,-4.9069,-4.9091,-4.9099,-4.9002,-4.9002,-4.9002,0,-4.8828,-4.8858,-4.8848,-4.8873,-4.8882,-4.8861,-4.889,-4.8897,-4.891,-4.8917,-4.8902,-4.894,-4.8944,-4.8983,-4.8999,-4.9006,-4.9014,-4.8995,-4.9063,-4.9069,-4.9075,-4.9095,-4.9104,-4.9005,-4.9004,-4.9004,-4.9004,0,-4.8894,-4.8916,-4.8938,-4.8952,-4.8964,-4.8991,-4.8985,-4.8999,-4.8991,-4.8989,-4.9022,-4.9026,-4.9043,-4.9053,-4.9044,-4.9091,-4.9082,-4.9065,-4.9035,-4.9087,-4.9105,-4.9113,-4.9008,-4.9007,-4.9007,-4.9006,0,0,-4.8967,-4.8978,-4.8986,-4.8993,-4.9003,-4.902,-4.9047,-4.9064,-4.9076,-4.9088,-4.9109,-4.9137,-4.9122,-4.9131,-4.9123,-4.9144,-4.9193,-4.9124,-4.9124,-4.9135,-4.9245,-4.9256,-4.9266,-4.9184,-4.9185,-4.9186,-4.9244,0,-4.9021,-4.9067,-4.906,-4.9104,-4.9124,-4.9108,-4.9131,-4.914,-4.9141,-4.9158,-4.9159,-4.9178,-4.9157,-4.9163,-4.9182,-4.9183,-4.9214,-4.9179,-4.9203,-4.9204,-4.9199,-4.9276,-4.9287,-4.9341,-4.9252,-4.9253,-4.9254,0,-4.9088,-4.9103,-4.915,-4.9159,-4.9167,-4.9188,-4.9204,-4.9222,-4.9233,-4.9232,-4.9243,-4.9233,-4.926,-4.9233,-4.9271,-4.9247,-4.9258,-4.926,-4.9262,-4.9261,-4.923,-4.9275,-4.9358,-4.9366,-4.9266,-4.9265,-4.9264,0,-4.9136,-4.9168,-4.92,-4.9207,-4.9218,-4.9233,-4.9239,-4.9248,-4.926,-4.9275,-4.9282,-4.9301,-4.931,-4.9324,-4.932,-4.93,-4.9359,-4.9331,-4.9358,-4.9358,-4.9368,-4.9367,-4.9452,-4.9379,-4.9379,-4.9379,-4.9379,0,-4.9195,-4.9223,-4.9221,-4.9241,-4.9273,-4.9267,-4.9299,-4.9303,-4.9312,-4.9332,-4.932,-4.9339,-4.9333,-4.9352,-4.9349,-4.9381,-4.9386,-4.9385,-4.9384,-4.9385,-4.9385,-4.9389,-4.9385,-4.9381,-4.938,-4.938,-4.938,0,-4.9251,-4.9251,-4.9285,-4.9294,-4.9297,-4.9321,-4.9329,-4.9348,-4.9349,-4.9375,-4.938,-4.9382,-4.9404,-4.9402,-4.9427,-4.9425,-4.9464,-4.9459,-4.946,-4.9458,-4.9485,-4.9482,-4.9573,-4.9585,-4.9507,-4.9507,-4.9508,0,-4.9287,-4.9309,-4.9322,-4.9335,-4.9342,-4.9363,-4.9376,-4.9372,-4.9385,-4.9401,-4.9418,-4.944,-4.9457,-4.9494,-4.9497,-4.9516,-4.951,-4.9541,-4.9513,-4.9514,-4.9509,-4.9507,-4.9509,-4.9546,-4.9546,-4.9547,-4.9548,0,-4.9352,-4.9352,-4.937,-4.939,-4.9405,-4.942,-4.9434,-4.9446,-4.9443,-4.9459,-4.9483,-4.9496,-4.9523,-4.9544,-4.9563,-4.9569,-4.9558,-4.9558,-4.9564,-4.9565,-4.9564,-4.9563,-4.9473,-4.9554,-4.9554,-4.9553,-4.9553,-4.9553,-4.9398,-4.9417,-4.943,-4.9452,-4.9462,-4.9476,-4.9494,-4.9499,-4.9519,-4.954,-4.9537,-4.9564,-4.9576,-4.9601,-4.9609,-4.963,-4.9618,-4.9629,-4.9631,-4.9633,-4.9636,-4.9563,-4.9634,-4.9633,-4.9633,-4.9633,-4.9633,0,-4.9461,-4.9469,-4.9489,-4.951,-4.9527,-4.9518,-4.9533,-4.9548,-4.9572,-4.9585,-4.9603,-4.963,-4.9652,-4.9659,-4.968,-4.9695,-4.9691,-4.9701,-4.9698,-4.97,-4.9645,-4.9636,-4.9704,-4.9704,-4.9704,-4.9704,-4.9704,-4.9704,-4.9495,-4.9527,-4.9529,-4.9567,-4.9575,-4.9601,-4.9611,-4.9624,-4.9635,-4.9666,-4.9685,-4.969,-4.97,-4.9723,-4.9742,-4.9744,-4.9751,-4.9763,-4.9762,-4.9711,-4.9703,-4.9696,-4.9688,-4.9765,-4.9765,-4.9815,-4.9815,-4.9816]},{"header":{"parameterUnit":"m.s-1","parameterCategory":1,"la1":30.2991,"la2":30.254,"lo1":-89.0895,"lo2":-89.0444,"dy":0.0017,"dx":0.0017,"nx":28,"ny":28,"refTime":"2025-04-19T21:00:00:Z","depth":0,"parameterNumber":3,"parameterNumberName":"V-component_of_WINDS"},"data":[0,0,0,0,0,0,0,0,0,0,0,0,0,0,0,0,0,0,0,0,0,0,0,0,0,0,0,0,0,0,0,0,0,0,0,0,0,0,0,0,0,0,0,0,0,0,0,0,0,0,0,0,0,0,0,0,0,0,3.7425,3.7424,0,3.7369,3.7369,3.7368,3.74,3.7401,3.7403,3.7404,3.7343,3.734,3.7337,0,0,0,0,0,0,0,0,0,0,0,0,0,3.7555,3.7553,3.7425,3.7424,3.7423,3.737,3.7369,3.7368,3.7399,3.7401,3.7403,3.7405,3.7344,3.734,3.7336,0,0,0,0,0,0,0,0,0,0,0,0,0,3.7499,3.7552,3.7425,3.7433,3.7433,3.737,3.7369,3.7368,3.7399,3.7401,3.7404,3.7406,3.7345,3.734,3.7336,3.726,0,0,3.7322,3.732,0,0,0,0,0,0,0,0,3.7502,3.7494,3.7432,3.7432,3.7432,3.7394,3.7392,3.7332,3.7398,3.7412,3.7404,3.7407,3.7357,3.7352,3.7336,3.7257,3.7255,3.7321,3.7318,3.7316,3.7315,0,0,0,0,0,0,0,3.7506,3.7497,3.7403,3.7431,3.7431,3.7438,3.7433,3.7381,3.7372,3.7411,3.7413,3.7406,3.7358,3.7341,3.7335,3.7254,3.7321,3.7317,3.7314,3.7313,3.7114,3.7112,0,0,0,0,0,0,3.751,3.75,3.7404,3.7401,3.7474,3.7434,3.7428,3.7404,3.7373,3.737,3.7404,3.7408,3.7347,3.734,3.7333,3.7245,3.7316,3.7312,3.7309,3.7116,3.7113,3.7111,0,0,0,0,0,0,3.7513,3.7501,3.7407,3.7451,3.744,3.7429,3.7402,3.7401,3.7384,3.7368,3.7366,3.7389,3.7349,3.734,3.7279,3.7244,3.731,3.7306,3.7119,3.7116,3.7112,3.7068,0,0,0,0,0,0,3.7516,3.7502,3.7473,3.745,3.7437,3.7354,3.74,3.7399,3.7377,3.7381,3.7353,3.735,3.735,3.7286,3.7275,3.7238,3.7302,3.7123,3.7118,3.7113,3.7072,3.7063,3.7055,0,0,0,0,0,3.7521,3.7461,3.7472,3.746,3.7401,3.7352,3.7345,3.7347,3.7374,3.7345,3.7335,3.7351,3.7249,3.728,3.7267,3.7229,3.7125,3.7119,3.7114,3.7076,3.7065,3.7055,0,0,0,0,0,0,3.7477,3.7458,3.7469,3.7401,3.7378,3.7358,3.7321,3.7335,3.7303,3.7308,3.7311,3.7304,3.7242,3.7229,3.7264,3.7156,3.7191,3.7183,3.7167,3.7156,3.7147,3.7152,3.7298,0,0,0,0,0,3.746,3.7423,3.7407,3.7348,3.7337,3.7331,3.7309,3.7314,3.729,3.728,3.7266,3.7241,3.7204,3.7179,3.7143,3.707,3.7066,3.7038,3.7029,3.7022,3.7015,3.6979,3.6967,3.7092,3.7092,3.7093,0,0,3.7423,3.7408,3.7384,3.7339,3.7322,3.7284,3.7323,3.7279,3.725,3.7273,3.7217,3.7205,3.7178,3.7112,3.7082,3.7099,3.698,3.7015,3.701,3.7006,3.6972,3.696,3.695,3.7089,3.7089,3.709,0,0,3.7337,3.7321,3.7272,3.7256,3.7231,3.7228,3.7216,3.7194,3.7189,3.7132,3.715,3.7115,3.705,3.7031,3.7013,3.6924,3.6938,3.6912,3.6866,3.6831,3.6821,3.6812,3.6783,3.6772,3.6905,3.6905,3.6905,0,3.7294,3.7238,3.7244,3.7201,3.7182,3.7204,3.7154,3.7137,3.7101,3.7087,3.7107,3.7029,3.7011,3.6943,3.6922,3.6905,3.6893,3.6915,3.6822,3.6814,3.6805,3.6777,3.6766,3.6902,3.6902,3.6902,3.6903,0,3.7188,3.7149,3.7112,3.708,3.7056,3.701,3.7009,3.6984,3.6992,3.6987,3.6931,3.6911,3.6874,3.6858,3.6863,3.6791,3.6803,3.6822,3.6858,3.6791,3.6765,3.6754,3.6898,3.6899,3.69,3.69,0,0,3.7071,3.7047,3.7033,3.7021,3.6996,3.6966,3.6921,3.6887,3.6867,3.6841,3.6805,3.6751,3.6771,3.675,3.6753,3.6722,3.6656,3.6746,3.6745,3.6732,3.6579,3.6565,3.6553,3.6666,3.6663,3.6662,3.6582,0,3.6986,3.691,3.6916,3.6844,3.6809,3.6831,3.6792,3.6773,3.6768,3.6737,3.6731,3.6694,3.6721,3.6709,3.6679,3.6671,3.6626,3.6676,3.6632,3.663,3.664,3.6539,3.6524,3.6449,3.6571,3.6569,3.6568,0,3.6875,3.685,3.6776,3.676,3.6746,3.6711,3.6682,3.6652,3.6632,3.663,3.6609,3.6619,3.6575,3.6611,3.6551,3.6585,3.6567,3.6561,3.6558,3.6555,3.6596,3.6534,3.6425,3.6414,3.6551,3.6553,3.6554,0,3.6801,3.6748,3.6698,3.6686,3.6665,3.6641,3.6631,3.6613,3.6594,3.6568,3.6556,3.6524,3.6507,3.6482,3.6484,3.651,3.6423,3.6459,3.6421,3.6421,3.6402,3.6404,3.629,3.6388,3.6388,3.6388,3.6389,0,3.6706,3.666,3.6665,3.6634,3.6583,3.6591,3.6541,3.6534,3.6518,3.6486,3.6501,3.6471,3.6474,3.6443,3.6444,3.6395,3.6386,3.6384,3.6385,3.6384,3.6384,3.6373,3.6379,3.6385,3.6386,3.6387,3.6387,0,3.6614,3.6615,3.6562,3.6549,3.6545,3.6509,3.6497,3.6468,3.6465,3.6425,3.6416,3.6411,3.6376,3.6376,3.6334,3.6335,3.6276,3.6282,3.6284,3.6285,3.6249,3.6253,3.6125,3.611,3.6216,3.6215,3.6214,0,3.6554,3.652,3.6504,3.6485,3.6475,3.6443,3.6425,3.6431,3.6411,3.6387,3.6361,3.6328,3.6302,3.6246,3.6238,3.6207,3.6214,3.6171,3.6209,3.621,3.6216,3.6218,3.6216,3.6164,3.6162,3.6161,3.6161,0,3.6448,3.6451,3.6425,3.6399,3.6377,3.6356,3.6337,3.632,3.6324,3.6301,3.6267,3.6247,3.6208,3.6175,3.6146,3.6136,3.6149,3.6149,3.6139,3.6138,3.6142,3.6142,3.6266,3.6152,3.6153,3.6153,3.6154,3.6154,3.6372,3.6344,3.633,3.63,3.6287,3.627,3.6243,3.6239,3.6211,3.6181,3.6186,3.6149,3.6132,3.6095,3.6082,3.6053,3.6067,3.6052,3.6049,3.6045,3.6043,3.6146,3.6047,3.6047,3.6047,3.6048,3.6048,0,3.6269,3.6262,3.6234,3.6209,3.6187,3.6204,3.6184,3.6164,3.6131,3.6115,3.6091,3.6053,3.6022,3.6014,3.5984,3.5963,3.5969,3.5955,3.5957,3.5955,3.603,3.6043,3.5951,3.5951,3.5951,3.5951,3.5951,3.5951,3.6213,3.6168,3.617,3.6119,3.6111,3.6077,3.6065,3.6049,3.6037,3.5995,3.5971,3.5966,3.5953,3.5924,3.5897,3.5895,3.5884,3.5869,3.587,3.594,3.5949,3.5959,3.5971,3.5866,3.5866,3.5798,3.5797,3.5797]}]]